Weather History for KS25 - July, 2014

Change the Weather History Date:

Friday, July 4, 2014

  Actual Average (KISN) Record (KISN)
Temperature  
Mean Temperature 73 °F 68 °F  
Max Temperature 89 °F 82 °F 107 °F (1989)
Min Temperature 57 °F 54 °F 38 °F (1972)
Degree Days  
Heating Degree Days 0 1  
Month to date heating degree days 6  
Since 1 June heating degree days 126  
Since 1 July heating degree days 6  
Cooling Degree Days 8 4  
Month to date cooling degree days 16  
Year to date cooling degree days 97  
Since 1 June cooling degree days 84  
Growing Degree Days 23 (Base 50)    
Moisture  
Dew Point 62 °F    
Average Humidity 72    
Maximum Humidity 94    
Minimum Humidity 43    
Precipitation  
Precipitation 0.00 in 0.11 in 2.24 in (1978)
Month to date precipitation 0.38  
Year to date precipitation 7.51  
Sea Level Pressure  
Sea Level Pressure 29.87 in    
Wind  
Wind Speed 7 mph (South)    
Max Wind Speed 13 mph    
Max Gust Speed 18 mph    
Visibility 10 miles    
Events      
T = Trace of Precipitation, MM = Missing Value Source: NWS Daily Summary

Daily Weather History Graph

Daily Weather History Graph

Search for Another Location

Airport or City:

Trip Planner

Search our weather history database for the weather conditions in past years. The results will help you decide how hot, cold, wet, or windy it might be!

Date:

Astronomy

Jul. 04, 2014 Rise Set
Actual Time 6:00 AM CDT 9:54 PM CDT
Civil Twilight 5:20 AM CDT 10:34 PM CDT
Nautical Twilight 4:24 AM CDT 11:29 PM CDT
Astronomical Twilight 2:58 AM CDT 12:54 AM CDT
Moon 1:31 PM CDT (7/4) 12:47 AM CDT (7/4)
Length of Visible Light 17h 14m
Length of Day
15h 53m
Waxing Crescent, 42% of the Moon is Illuminated
Jul 4
Waxing Crescent
Jul 5
First Quarter
Jul 12
Full
Jul 18
Last Quarter
Jul 26
New

Hourly Weather History & Observations

Time (CDT) Temp. Heat Index Dew Point Humidity Pressure Visibility Wind Dir Wind Speed Gust Speed Precip Events Conditions
12:15 AM 62.6 °F - 57.2 °F 82% 30.00 in 10.0 mi SE 10.4 mph - N/A   Clear
12:35 AM 62.6 °F - 55.4 °F 77% 30.00 in 10.0 mi SE 8.1 mph - N/A   Clear
12:55 AM 62.6 °F - 55.4 °F 77% 29.99 in 10.0 mi SE 9.2 mph - N/A   Clear
1:15 AM 60.8 °F - 55.4 °F 82% 29.98 in 10.0 mi SE 8.1 mph - N/A   Clear
1:35 AM 62.6 °F - 55.4 °F 77% 29.98 in 10.0 mi SE 9.2 mph - N/A   Clear
1:55 AM 62.6 °F - 55.4 °F 77% 29.97 in 10.0 mi SE 9.2 mph - N/A   Clear
2:15 AM 62.6 °F - 53.6 °F 72% 29.96 in 10.0 mi SE 10.4 mph - N/A   Clear
2:35 AM 62.6 °F - 53.6 °F 72% 29.95 in 10.0 mi SE 10.4 mph - N/A   Clear
2:55 AM 62.6 °F - 53.6 °F 72% 29.95 in 10.0 mi SE 11.5 mph - N/A   Clear
3:15 AM 62.6 °F - 53.6 °F 72% 29.96 in 10.0 mi SE 6.9 mph - N/A   Clear
3:35 AM 59.0 °F - 53.6 °F 82% 29.94 in 10.0 mi Calm Calm - N/A   Clear
3:55 AM 59.0 °F - 53.6 °F 82% 29.93 in 10.0 mi Calm Calm - N/A   Clear
4:15 AM 59.0 °F - 53.6 °F 82% 29.93 in 10.0 mi Calm Calm - N/A   Clear
4:35 AM 57.2 °F - 53.6 °F 88% 29.92 in 10.0 mi East 3.5 mph - N/A   Clear
4:55 AM 57.2 °F - 53.6 °F 88% 29.91 in 10.0 mi SE 4.6 mph - N/A   Clear
5:15 AM 57.2 °F - 55.4 °F 94% 29.90 in 10.0 mi SE 5.8 mph - N/A   Clear
5:35 AM 57.2 °F - 55.4 °F 94% 29.90 in 10.0 mi ESE 3.5 mph - N/A   Clear
5:55 AM 57.2 °F - 55.4 °F 94% 29.91 in 10.0 mi South 3.5 mph - N/A   Clear
6:15 AM 57.2 °F - 55.4 °F 94% 29.91 in 10.0 mi ESE 3.5 mph - N/A   Clear
6:35 AM 57.2 °F - 55.4 °F 94% 29.91 in 10.0 mi ESE 4.6 mph - N/A   Clear
6:55 AM 57.2 °F - 55.4 °F 94% 29.90 in 10.0 mi ESE 6.9 mph - N/A   Clear
7:15 AM 59.0 °F - 55.4 °F 88% 29.90 in 10.0 mi ESE 4.6 mph - N/A   Clear
7:35 AM 59.0 °F - 57.2 °F 94% 29.90 in 10.0 mi ESE 4.6 mph - N/A   Clear
7:55 AM 59.0 °F - 57.2 °F 94% 29.89 in 10.0 mi ESE 5.8 mph - N/A   Clear
8:15 AM 60.8 °F - 57.2 °F 88% 29.88 in 10.0 mi SE 6.9 mph - N/A   Clear
8:35 AM 62.6 °F - 57.2 °F 82% 29.88 in 10.0 mi SE 8.1 mph - N/A   Clear
8:55 AM 64.4 °F - 59.0 °F 83% 29.88 in 10.0 mi ESE 3.5 mph - N/A   Clear
9:15 AM 66.2 °F - 59.0 °F 78% 29.87 in 10.0 mi South 6.9 mph - N/A   Clear
9:35 AM 68.0 °F - 60.8 °F 78% 29.87 in 10.0 mi SSE 4.6 mph - N/A   Clear
9:55 AM 68.0 °F - 62.6 °F 83% 29.86 in 10.0 mi South 5.8 mph - N/A   Clear
10:15 AM 71.6 °F - 62.6 °F 73% 29.86 in 10.0 mi SSE 6.9 mph - N/A   Clear
10:35 AM 71.6 °F - 62.6 °F 73% 29.86 in 10.0 mi SSW 3.5 mph - N/A   Clear
11:15 AM 75.2 °F - 64.4 °F 69% 29.86 in 10.0 mi South 3.5 mph - N/A   Clear
11:35 AM 75.2 °F - 66.2 °F 73% 29.85 in 10.0 mi Calm Calm - N/A   Clear
11:55 AM 77.0 °F - 66.2 °F 69% 29.85 in 10.0 mi SSE 4.6 mph - N/A   Clear
12:15 PM 77.0 °F - 66.2 °F 69% 29.85 in 10.0 mi South 3.5 mph - N/A   Clear
12:35 PM 78.8 °F - 66.2 °F 65% 29.86 in 10.0 mi East 3.5 mph - N/A   Clear
12:55 PM 80.6 °F 83.2 °F 68.0 °F 65% 29.85 in 10.0 mi South 3.5 mph - N/A   Clear
1:15 PM 80.6 °F 83.2 °F 68.0 °F 65% 29.85 in 10.0 mi SE 4.6 mph - N/A   Clear
1:35 PM 80.6 °F 83.2 °F 68.0 °F 65% 29.85 in 10.0 mi SW 4.6 mph - N/A   Clear
1:55 PM 82.4 °F 85.4 °F 68.0 °F 62% 29.84 in 10.0 mi South 5.8 mph - N/A   Clear
2:15 PM 82.4 °F 85.4 °F 68.0 °F 62% 29.84 in 10.0 mi SSE 5.8 mph - N/A   Clear
2:35 PM 82.4 °F 85.4 °F 68.0 °F 62% 29.83 in 10.0 mi East 4.6 mph - N/A   Clear
2:55 PM 84.2 °F 87.3 °F 68.0 °F 58% 29.83 in 10.0 mi South 6.9 mph - N/A   Clear
3:15 PM 84.2 °F 88.4 °F 69.8 °F 62% 29.83 in 10.0 mi South 4.6 mph - N/A   Clear
3:35 PM 86.0 °F 89.4 °F 68.0 °F 55% 29.83 in 10.0 mi West 8.1 mph - N/A   Clear
3:55 PM 86.0 °F 87.3 °F 64.4 °F 48% 29.82 in 10.0 mi WSW 6.9 mph - N/A   Clear
4:15 PM 86.0 °F 88.2 °F 66.2 °F 51% 29.82 in 10.0 mi SW 5.8 mph - N/A   Clear
4:35 PM 86.0 °F 88.2 °F 66.2 °F 51% 29.82 in 10.0 mi Calm Calm - N/A   Clear
4:55 PM 87.8 °F 90.4 °F 66.2 °F 49% 29.82 in 10.0 mi SW 6.9 mph - N/A   Clear
5:15 PM 89.6 °F 92.2 °F 66.2 °F 46% 29.82 in 10.0 mi SW 12.7 mph 18.4 mph N/A   Clear
5:35 PM 89.6 °F 92.2 °F 66.2 °F 46% 29.81 in 10.0 mi WSW 9.2 mph - N/A   Clear
5:55 PM 89.6 °F 91.1 °F 64.4 °F 43% 29.81 in 10.0 mi WSW 6.9 mph - N/A   Clear
6:15 PM 89.6 °F 91.1 °F 64.4 °F 43% 29.81 in 10.0 mi West 9.2 mph - N/A   Clear
6:35 PM 89.6 °F 92.2 °F 66.2 °F 46% 29.81 in 10.0 mi West 9.2 mph - N/A   Clear
6:55 PM 87.8 °F 90.4 °F 66.2 °F 49% 29.81 in 10.0 mi West 5.8 mph - N/A   Clear
7:15 PM 86.0 °F 88.2 °F 66.2 °F 51% 29.80 in 10.0 mi WNW 6.9 mph - N/A   Clear
7:35 PM 84.2 °F 86.6 °F 66.2 °F 55% 29.81 in 10.0 mi WNW 5.8 mph - N/A   Clear
7:55 PM 86.0 °F 88.2 °F 66.2 °F 51% 29.81 in 10.0 mi West 5.8 mph - N/A   Clear
8:15 PM 84.2 °F 87.3 °F 68.0 °F 58% 29.81 in 10.0 mi West 5.8 mph - N/A   Clear
8:35 PM 82.4 °F 85.4 °F 68.0 °F 62% 29.81 in 10.0 mi West 5.8 mph - N/A   Clear
8:55 PM 80.6 °F 82.7 °F 66.2 °F 61% 29.81 in 10.0 mi West 6.9 mph - N/A   Clear
9:15 PM 80.6 °F 82.7 °F 66.2 °F 61% 29.81 in 10.0 mi West 6.9 mph - N/A   Clear
9:35 PM 75.2 °F - 68.0 °F 78% 29.81 in 8.0 mi SW 5.8 mph - N/A   Clear
10:15 PM 71.6 °F - 66.2 °F 83% 29.82 in 9.0 mi WNW 4.6 mph - N/A   Clear
10:35 PM 69.8 °F - 64.4 °F 83% 29.82 in 9.0 mi SSW 4.6 mph - N/A   Clear
10:55 PM 69.8 °F - 64.4 °F 83% 29.82 in 8.0 mi SSW 5.8 mph - N/A   Clear
11:15 PM 68.0 °F - 64.4 °F 88% 29.83 in 9.0 mi SSW 5.8 mph - N/A   Clear
11:35 PM 68.0 °F - 62.6 °F 83% 29.83 in 7.0 mi Calm Calm - N/A   Clear
11:55 PM 66.2 °F - 62.6 °F 88% 29.83 in 6.0 mi SW 3.5 mph - N/A   Clear